User: anonymous
Location: Pleiades Observatory
(40.1297°N, 91.5238°W)
Time: 04:40:27
(UTC-05:00)
Language:

Cosmos 1842 Rocket - Orbit

View from above orbital plane
View from above orbital plane
View from above satellite
View from above satellite

Ground track
Ground track

The orbit data is extracted from the following two-line orbital elements,

1 17912U 87038B   14260.43046784  .00000415  00000-0  48752-4 0  4530
2 17912 082.4994 271.8871 0018875 296.0688 063.8583 14.82423553478986
Epoch (UTC): 17 September 2014 10:19:52
Eccentricity: 0.0018875
inclination: 82.4994°
perigee height: 608 km
apogee height: 635 km
right ascension of ascending node: 271.8871°
argument of perigee: 296.0688°
revolutions per day: 14.82423553
mean anomaly at epoch: 63.8583°
orbit number at epoch: 47898

The dashed part of the orbit path shows where the satellite is in the earth's shadow,  

DLR